STARLINK-4634, 53967

Orbit data source: Space-Track

STARLINK-4634, 53967 is a payload satellite owned by SpaceX/Seattle (US) in LEO that was launched on Wed, 05 Oct 2022 UTC via an FALCON 9 launch vehicle from the Air Force Western Test Range (AFWTR). Payload-class satellites include a variety of spacecraft equipped with specific instruments for various scientific and technological missions. These include communications satellites like Starlink; space stations such as the ISS; scientific satellites like the Hubble; Earth observation satellites from companies like Planet Labs, Umbra, and HawkEye 360; GPS; miniature CubeSats for education and research; and military/defense satellites.

Loading next visibility...
Identifier
53967, 2022-125D
Orbit
LEO
Country
Flag of USUS
Related business
Manufacturer
SpaceX/Seattle
Mission
Operational Commercial Communications
Bus & Motor
STARLINK, Unknown motor
Mass
305 kg wet, ~290 kg dry
Launch date (UTC)
2022-10-05 (4 years ago)
Launch vehicle
FALCON 9
Launch site
Air Force Western Test Range (AFWTR)
Object type
Payload
Rocket body
Debris
Shape & HBR
Box + 1 Pan, 10.1 m
Radar Cross Section
13.562 m², Large (>1 m²)

Expand to show TLE details & history
Last TLE update: 2 days ago

TLE from 2 days ago
0 STARLINK-4634
1 53967U 22125D   26171.24282235 -.00001500  00000-0 -76229-4 0  9995
2 53967  53.1604 123.6682 0001275  79.9543 280.1592 15.08823162204808
Epoch: 2026-06-20T05:49Z
TLE epoch observation values (Epoch: 2026-06-20T05:49:39.851Z)
Latitude
-0.00002°
Longitude
127.79189°
Altitude
540.531 km
Speed
7.593 km/s
True Right ascension
08h 14m 40s
True Declination
0° 00' 00"
Sunlit
Object was in daylight at epoch
Visualization orbit readout
Latitude
Unknown
Longitude
Unknown
Altitude
Unknown
Speed
Unknown
Apparent Right ascension
Unknown
Apparent Declination
Unknown
Sunlit
N/A
Visualization observer readout
Local Sidereal Time
21:31:59
Azimuth
Unknown
Elevation
Unknown
Doppler factor
Unknown
Orbital elements
Apogee altitude
540.931 km
Perigee altitude
539.167 km
Semi-major axis
6,918.186 km
Eccentricity
0.00013
Inclination
53.1604°
RAAN
123.6682°
Arg. of periapsis
79.9543°
True anomaly
280.14482°
Mean anomaly
280.1592°
Eccentric anomaly
280.15201°
Mean motion
3.77185 °/min
Orbital period
95.44 mins
BSTAR
-0.000076229
Loading maneuver chart data...
Computing Atmospheric mass density...
Loading historical data...
Loading historical data...
Loading historical data...
Loading historical data...
Loading historical data...
Loading historical data...
Loading historical data...

Documentation

Showing up to 5 results
|